Location: Newark
(34.3481°N, 134.0494°E)
Time: 11:53:17
(UTC+00:00)

Vanguard 3 - Pass Details

Date: 25 January 2020
Orbit: 508 x 3263 km, 33.3° (Epoch: 19 February)

Event Time Altitude Azimuth Distance (km) Brightness Sun altitude
Rises 09:43:46 0° 256° (WSW) 7,105 13.8 -16.2°
Reaches altitude 10° 09:48:25 10° 256° (WSW) 6,176 13.0 -17.1°
Maximum altitude 10:08:41 84° 172° (S) 2,932 9.8 -21.2°
Enters shadow 10:18:11 31° 87° (E) 3,626 9.8 -23.2°
